This demonstration page uses our WeatherBlox Daily Observations layout. Learn more.

Left ArrowRight Arrow

Hourly Observations for February 28, 2022

Temp ( °F °C ) Dew Point ( °F °C ) Humidity (%) Winds ( mph kmh ) Pressure ( in mb ) Visibility ( mi km ) Precip ( " mm )
12:53 am 00:53 Clear 40 4.4 29 -1.7 65 65 SW 17 28 30.04 1017 10 16 0.00 0.00
1:53 am 01:53 Clear 39 3.9 29 -1.7 67 67 SW 18 30 30.04 1017 10 16 0.00 0.00
2:53 am 02:53 Clear 38 3.3 29 -1.7 70 70 SW 16 26 30.03 1017 10 16 0.00 0.00
3:53 am 03:53 Clear 38 3.3 29 -1.7 70 70 SW 10 17 30.03 1017 10 16 0.00 0.00
4:53 am 04:53 Mostly Cloudy 36 2.2 28 -2.2 73 73 SW 12 19 30.03 1017 10 16 0.00 0.00
5:53 am 05:53 Cloudy 35 1.7 29 -1.7 78 78 W 7 11 30.03 1017 10 16 0.00 0.00
6:53 am 06:53 Cloudy 37 2.8 30 -1.1 76 76 SW 14 22 30.01 1016 10 16 0.00 0.00
7:53 am 07:53 Mostly Cloudy 36 2.2 30 -1.1 79 79 W 3 6 29.99 1016 10 16 0.00 0.00
8:53 am 08:53 Mostly Cloudy 40 4.4 31 -0.6 70 70 WNW 5 7 29.96 1015 10 16 0.00 0.00
9:53 am 09:53 Cloudy 46 7.8 32 0 58 58 SW 16 26 29.92 1013 10 16 0.00 0.00
10:53 am 10:53 Cloudy 47 8.3 33 0.6 59 59 WSW 15 24 29.91 1013 10 16 0.00 0.00
11:53 am 11:53 Cloudy 48 8.9 35 1.7 61 61 WSW 12 19 29.88 1012 10 16 0.00 0.00
12:53 pm 12:53 Mostly Cloudy 52 11.1 35 1.7 53 53 SW 22 35 29.83 1010 10 16 0.00 0.00
1:53 pm 13:53 Cloudy 53 11.7 36 2.2 52 52 SW 20 31 29.81 1009 10 16 0.00 0.00
2:53 pm 14:53 Cloudy 53 11.7 37 2.8 55 55 WSW 10 17 29.80 1009 10 16 0.00 0.00
3:53 pm 15:53 Cloudy 50 10 37 2.8 61 61 WSW 10 17 29.81 1010 10 16 0.00 0.00
4:53 pm 16:53 Cloudy 49 9.4 34 1.1 56 56 W 9 15 29.82 1010 10 16 0.00 0.00
5:53 pm 17:53 Cloudy 47 8.3 33 0.6 59 59 SW 8 13 29.83 1010 10 16 0.00 0.00
6:53 pm 18:53 Cloudy 45 7.2 34 1.1 66 66 SW 13 20 29.84 1011 10 16 0.00 0.00
7:53 pm 19:53 Cloudy 44 6.7 34 1.1 68 68 SW 14 22 29.86 1011 10 16 0.00 0.00
8:53 pm 20:53 Cloudy 45 7.2 34 1.1 66 66 SW 13 20 29.87 1012 10 16 0.00 0.00
9:53 pm 21:53 Cloudy 43 6.1 33 0.6 68 68 WNW 6 9 29.88 1012 10 16 0.00 0.00
10:53 pm 22:53 Cloudy 40 4.4 32 0 73 73 WSW 6 9 29.90 1012 10 16 0.00 0.00
11:53 pm 23:53 Cloudy 41 5 33 0.6 73 73 SW 9 15 29.91 1013 10 16 0.00 0.00

Powered by AerisWeather